Location: *
(51.0333°S, 178.4667°E)
Time: 15:13:38
(UTC+00:00)

EO 1 Del DPAF - Pass Details

Date: 15 November 2019
Orbit: 516 x 520 km, 98.0° (Epoch: 09 December)

Event Time Altitude Azimuth Distance (km) Brightness Sun altitude
Exits shadow 08:34:34 - 23° (NNE) 1,842 5.4 -8.3°
Reaches altitude 10° 08:34:45 10° 23° (NNE) 1,765 5.3 -8.4°
Maximum altitude 08:38:33 71° 107° (ESE) 563 3.3 -8.8°
Drops below altitude 10° 08:42:24 10° 191° (S) 1,791 6.9 -9.2°
Sets 08:44:31 0° 192° (SSW) 2,689 7.9 -9.5°
